Theta_e
349 346 346 344 345 342 343 341 339 341 345 349 350 350 349 350 350 349 347 350 347 346 347 349 351 355 358 357 356 355 353 351 350 349 348 348 348 349 349 350 350 348 347
352 346 348 347 345 344 341 341 340 341 346 348 350 353 352 351 351 352 348 349 349 346 347 347 349 352 356 359 357 355 352 351 351 349 348 348 347 348 348 349 350 349 348
355 351 346 346 344 347 348 346 345 345 345 348 349 351 351 352 351 351 351 350 349 347 347 348 347 349 351 358 359 356 353 351 350 349 348 348 347 346 347 348 349 349 348
352 352 345 345 347 347 345 343 342 342 346 347 348 349 350 351 350 350 350 350 348 350 351 349 347 347 348 352 359 359 354 351 349 348 348 348 347 346 346 347 347 347 347
353 351 346 345 351 345 343 342 341 345 343 345 344 349 351 350 350 346 348 349 350 351 349 351 348 346 347 350 353 358 356 353 349 348 347 348 348 348 347 346 346 346 346
353 354 349 351 351 346 342 343 348 343 343 343 341 346 350 349 349 348 348 347 348 350 349 352 351 349 348 348 349 352 356 355 352 349 347 346 347 347 347 347 346 346 346
354 356 349 353 353 349 350 353 346 346 342 346 344 346 346 349 349 345 347 346 347 349 349 347 346 346 348 348 347 349 352 356 355 352 347 345 345 347 347 347 347 346 345
353 355 352 352 353 349 353 351 349 340 340 344 343 339 332 337 341 348 347 348 348 347 347 347 349 350 349 349 353 348 348 351 353 353 349 345 345 346 346 346 346 346 345
353 355 356 355 354 352 347 354 351 347 335 345 353 341 333 325 335 342 348 345 351 345 348 348 349 348 349 350 346 349 347 347 349 352 350 347 346 347 346 345 345 345 345
353 353 357 354 356 351 349 350 349 349 347 339 348 347 344 340 332 328 339 342 346 349 353 348 345 346 348 348 350 347 344 343 346 348 350 349 348 348 347 346 344 344 344
353 351 353 353 353 349 350 353 351 349 345 343 342 338 333 333 333 333 326 331 339 339 345 345 345 345 350 349 350 347 341 340 340 342 345 346 348 348 347 347 346 345 345
350 353 351 353 351 353 354 353 354 351 347 343 340 336 330 327 326 326 326 331 336 339 340 343 345 343 345 346 350 343 338 335 334 335 337 340 342 344 344 344 345 346 346
348 354 356 355 352 356 356 357 354 350 346 341 341 335 338 330 331 332 332 335 336 337 338 343 342 343 345 346 349 343 339 333 331 330 331 334 337 337 338 339 340 340 341
351 360 355 355 356 356 356 356 353 349 350 345 343 340 336 338 338 338 339 337 336 336 334 343 341 343 344 349 346 339 347 333 330 328 328 331 331 332 333 334 335 335 335
346 353 356 355 354 354 354 354 350 350 349 346 342 341 338 338 347 348 344 343 337 329 328 334 335 352 348 351 350 351 352 327 329 327 328 329 327 327 328 329 329 330 332
348 350 352 352 352 352 352 352 352 351 347 340 339 341 345 342 343 346 342 340 339 334 328 334 340 340 345 349 349 348 349 332 326 325 326 324 323 323 323 324 326 328 329
341 340 341 343 345 346 348 349 348 346 346 346 346 344 343 345 346 339 339 337 336 337 330 330 333 344 345 346 350 348 345 344 338 321 319 317 316 316 316 318 321 324 327
335 333 333 334 335 336 339 340 340 339 340 340 340 338 336 335 339 340 335 339 338 339 334 330 334 336 338 342 344 344 341 343 344 320 317 316 315 315 316 316 317 316 315
328 327 327 327 327 329 333 334 331 331 332 331 331 331 331 333 335 334 336 335 335 340 339 334 334 336 338 336 336 339 342 342 340 322 318 317 316 316 316 316 317 316 314
326 326 327 326 326 327 329 330 329 331 331 330 330 331 329 329 331 333 335 337 338 339 339 337 335 332 335 337 336 333 335 338 338 337 322 320 320 317 318 319 320 320 316
325 325 325 325 325 326 325 327 328 329 331 330 331 329 330 327 322 324 326 332 336 336 337 335 332 332 334 331 328 333 334 342 337 341 336 334 334 333 328 320 325 322 317
325 324 324 323 325 323 311 316 325 330 330 329 326 325 327 325 324 316 315 316 324 334 335 334 332 334 339 337 331 337 338 334 332 339 335 333 335 333 335 337 319 316 312
330 328 326 326 327 327 307 308 310 327 325 325 325 324 323 319 321 325 317 313 313 310 317 337 338 338 334 337 338 336 338 336 337 337 335 332 334 332 334 329 314 310 310
330 330 330 329 329 326 304 303 306 323 323 324 324 324 325 325 326 326 327 328 328 333 338 332 334 341 341 345 342 336 341 341 339 336 337 332 333 331 333 332 311 309 308
329 330 328 328 327 325 302 301 308 320 321 322 322 323 324 323 311 304 329 328 326 330 320 312 311 308 309 309 326 336 336 334 329 330 335 335 331 331 334 333 330 310 308
326 325 326 326 318 324 300 299 306 316 318 318 322 323 308 316 306 304 328 329 325 328 335 337 329 320 318 324 310 340 338 329 331 331 334 332 331 331 328 333 331 330 329
Wind_Speed
8 9 7 7 7 7 8 7 6 5 6 7 7 6 6 6 5 6 5 10 8 10 11 13 14 12 11 13 15 15 15 15 15 15 15 14 13 13 13 14 13 13 13
9 10 9 9 8 7 7 6 6 6 7 6 7 7 6 6 5 6 6 5 11 10 12 13 13 13 13 13 13 14 15 15 16 16 15 15 14 14 14 15 15 14 14
9 8 9 10 9 8 7 7 7 7 7 7 7 7 6 6 6 6 6 7 3 13 11 11 11 12 12 14 13 14 14 14 15 16 15 15 15 14 14 16 15 15 15
14 13 10 10 9 7 9 8 7 8 7 7 5 5 4 5 6 6 7 6 4 5 7 10 7 7 10 14 15 16 15 13 13 14 15 16 16 15 15 16 16 15 15
17 13 10 9 10 9 10 9 9 8 7 8 6 6 5 5 7 6 7 7 5 4 4 6 8 9 10 13 15 16 15 13 13 14 15 16 17 16 15 16 16 15 16
16 12 11 10 10 9 9 9 9 9 9 7 6 5 6 6 5 5 8 7 6 2 3 5 7 3 11 12 13 16 16 16 15 15 16 16 17 16 16 15 16 16 16
16 15 13 13 12 11 11 9 10 11 9 8 7 7 7 6 5 5 5 6 6 6 4 3 6 6 4 11 14 15 16 17 16 16 15 15 17 15 15 16 16 16 16
18 14 10 11 13 12 12 12 11 9 9 10 8 7 5 5 4 4 4 4 4 6 8 7 8 7 5 7 7 9 13 17 15 15 15 15 16 15 15 16 16 16 16
18 18 17 12 12 11 12 12 13 13 10 8 11 7 3 5 3 3 4 4 6 8 7 8 9 7 7 7 8 11 13 13 16 15 14 14 16 14 14 15 15 15 15
17 17 16 15 11 10 12 9 10 10 10 9 5 2 8 9 4 5 4 6 8 9 9 9 7 8 7 6 10 13 7 12 14 14 14 15 15 14 13 13 13 13 14
16 17 15 14 12 9 8 10 10 11 10 8 4 1 5 7 8 6 11 12 11 12 6 10 9 10 9 10 7 10 9 12 9 11 11 11 12 13 11 10 11 13 14
13 17 17 15 11 12 13 12 11 15 12 11 8 8 5 3 9 10 14 14 16 13 11 11 11 11 10 8 10 8 4 6 7 8 6 9 9 7 7 7 9 12 14
14 16 16 14 13 14 13 11 13 14 14 12 13 7 4 7 6 9 9 13 15 13 10 7 10 12 6 5 10 3 4 5 7 5 6 8 8 6 6 6 7 8 10
13 13 16 15 15 14 13 13 12 13 13 12 15 11 8 7 8 8 10 12 12 9 9 11 9 9 6 6 3 2 5 5 6 5 6 7 5 4 3 5 7 7 7
10 12 13 13 14 14 14 14 11 13 12 13 10 8 7 6 7 9 10 10 10 11 9 5 3 2 4 4 4 6 4 8 3 4 3 3 2 1 2 4 4 5 6
10 12 13 13 13 13 13 11 10 11 12 10 8 9 8 6 8 9 10 8 8 8 6 0 2 4 7 8 3 5 1 6 5 3 2 2 2 2 1 2 2 4 6
11 11 10 10 11 11 11 12 12 11 14 12 11 11 11 12 10 10 8 8 7 7 8 1 5 1 6 8 8 5 4 7 7 5 2 1 1 1 2 3 2 2 4
12 11 11 10 11 11 10 11 11 10 11 11 11 9 10 8 10 9 8 8 7 7 7 9 4 4 3 7 6 5 5 5 5 8 3 2 2 3 2 1 1 3 2
13 13 12 12 12 11 11 11 11 11 10 9 8 8 7 7 7 7 7 7 7 7 8 9 7 2 2 2 4 6 7 5 4 8 6 6 6 5 4 4 4 4 5
15 14 13 13 13 12 12 12 10 10 9 8 6 5 5 5 6 7 7 8 8 8 9 10 9 6 5 4 6 5 6 7 7 5 1 5 5 7 6 6 5 4 5
14 15 15 14 13 12 11 12 11 10 9 7 6 6 7 4 5 8 8 8 9 8 10 10 9 8 6 5 6 6 9 5 7 7 5 5 8 8 8 9 7 6 5
15 15 15 15 15 11 14 9 10 9 8 6 5 4 6 7 11 14 12 12 11 12 12 10 12 7 9 8 7 9 5 6 5 7 6 5 5 5 4 3 9 3 2
13 14 15 15 15 12 13 11 5 9 8 6 5 5 7 7 7 12 10 14 14 17 18 14 14 12 5 10 9 7 7 7 5 5 7 6 6 4 3 8 8 6 5
14 14 15 15 14 12 14 12 9 7 6 6 6 7 8 10 11 11 12 12 13 12 10 9 14 14 8 10 9 6 7 6 3 4 6 2 4 4 3 6 8 6 7
15 15 15 17 16 14 16 14 11 8 8 7 7 8 9 11 12 7 11 13 14 13 2 7 11 11 7 6 8 5 8 7 6 5 6 3 4 4 3 5 7 7 6
14 14 16 16 15 15 15 14 10 7 8 7 7 9 12 15 12 9 11 12 13 13 14 8 7 4 4 6 7 8 8 7 6 3 6 6 6 5 4 5 7 6 7
Wind_Direction
188 192 193 205 196 203 192 209 212 210 211 227 235 224 244 251 263 275 287 163 223 251 254 263 267 258 254 236 221 219 229 230 231 224 218 222 217 219 230 227 220 222 222
179 194 192 199 198 209 213 226 210 210 218 226 232 240 239 266 257 277 285 280 191 228 254 261 264 267 266 246 229 226 224 231 235 230 223 220 219 217 219 231 224 221 223
181 218 203 203 201 189 215 218 233 225 245 221 231 244 253 249 256 269 280 286 284 203 224 243 262 276 281 272 248 236 230 230 237 237 231 222 221 219 217 226 227 224 223
199 194 198 208 214 202 197 215 214 232 221 234 230 253 242 270 271 274 269 280 299 313 204 206 236 259 267 266 257 243 234 230 238 243 239 230 224 219 219 223 227 224 223
199 204 209 214 204 215 211 209 209 228 229 238 229 247 235 247 271 270 275 268 268 294 326 154 213 221 232 246 255 259 246 232 231 240 242 236 231 225 221 222 224 225 223
203 201 197 199 216 222 226 218 219 216 240 238 240 236 250 252 240 271 266 261 235 246 297 316 303 292 203 221 233 249 253 237 227 232 238 239 236 227 224 224 224 225 225
202 207 197 187 202 222 227 201 220 225 233 230 226 224 237 225 229 245 249 234 231 222 266 274 279 322 301 202 230 206 242 247 242 230 232 235 238 230 226 225 225 226 225
209 208 209 198 182 218 226 217 212 224 232 230 230 235 206 177 178 198 218 238 285 268 263 254 279 298 305 313 292 244 225 243 249 250 231 232 235 229 225 226 225 227 228
209 210 205 211 210 175 219 212 205 210 233 223 247 274 249 239 141 184 222 260 291 268 278 263 266 298 305 291 288 250 232 232 244 253 245 233 234 226 226 225 224 227 231
218 210 211 203 200 192 218 206 214 210 218 236 205 323 30 7 360 319 273 272 247 250 256 263 298 301 305 284 246 258 262 232 234 243 248 240 231 228 226 226 228 231 232
217 217 214 206 206 207 196 214 197 196 194 200 160 34 2 331 319 293 303 317 303 286 270 287 305 302 290 279 277 256 230 224 228 244 246 252 241 236 231 231 237 235 232
204 212 205 203 202 203 202 199 189 188 176 171 174 168 173 244 286 280 284 297 281 283 265 274 295 290 284 289 266 265 263 241 224 227 237 247 248 249 246 248 258 251 243
195 199 203 198 201 209 202 202 184 192 192 194 203 210 227 218 247 270 271 273 274 279 289 300 287 296 296 253 274 276 203 220 235 219 214 238 234 230 241 254 261 270 273
191 181 197 198 206 207 207 202 204 214 212 221 228 221 204 203 223 220 248 253 266 284 270 273 274 289 277 290 335 243 236 207 217 203 197 201 205 213 241 256 261 276 283
191 179 188 198 204 213 210 205 216 214 215 218 212 211 213 222 243 244 245 248 258 269 287 302 302 271 301 288 3 282 262 124 132 169 190 197 210 250 265 269 265 274 280
195 176 188 193 200 205 202 193 206 208 202 208 225 204 216 221 250 240 238 244 234 250 252 237 198 336 298 300 283 268 133 147 115 98 88 58 24 3 350 285 277 277 278
169 172 177 182 192 201 203 200 214 214 211 213 214 218 219 221 227 231 229 240 244 230 237 270 272 259 297 282 289 250 198 225 150 121 96 62 35 1 347 326 331 270 261
169 172 175 180 182 185 180 187 192 184 194 194 196 202 207 206 215 235 243 238 243 225 228 248 243 222 208 305 298 277 257 247 262 121 147 140 114 89 82 88 161 136 133
172 175 178 183 183 179 178 182 184 174 178 181 183 195 212 215 230 265 270 266 248 226 230 246 256 254 145 190 266 249 263 247 241 122 169 164 151 128 129 127 159 128 122
170 173 177 182 183 178 179 180 180 175 175 177 179 207 222 233 248 261 266 268 247 256 245 242 260 266 242 185 224 235 220 222 227 196 118 37 151 150 164 169 167 155 116
178 183 179 181 183 186 185 186 180 185 184 189 188 220 221 262 321 282 282 283 292 251 258 251 257 266 225 204 212 222 234 196 208 233 228 183 190 189 169 199 155 162 138
189 192 188 190 187 199 126 127 183 177 179 187 216 251 282 246 244 234 234 242 264 275 270 262 269 276 267 230 233 260 225 202 206 190 219 176 227 226 171 172 96 131 153
198 194 190 194 187 193 132 137 154 172 180 191 217 255 275 290 287 275 238 224 234 225 232 257 259 255 268 267 231 222 224 216 226 146 224 162 206 202 197 123 150 159 151
201 197 189 189 184 174 146 152 167 189 205 221 240 256 268 279 278 282 285 288 290 283 233 222 242 257 235 254 212 191 211 212 206 198 222 212 190 152 138 108 150 159 150
196 198 195 185 184 174 159 162 181 199 209 228 254 268 276 282 279 256 272 280 292 285 195 261 256 281 281 266 183 165 200 198 206 204 188 224 190 162 180 173 151 150 146
203 200 195 194 187 186 163 166 185 228 221 231 241 254 230 250 266 260 269 279 286 285 287 242 223 199 196 209 249 211 206 215 223 184 176 223 193 173 170 160 136 170 167